User: anonymous   Login
Location: Deer Lodge Site
(39.6809°N, 119.9392°W)
Time: 16:34:08
(UTC-07:00)
Language:

CZ-4C R/B - Orbit

View from above orbital plane
View from above orbital plane
View from above satellite
View from above satellite

Ground track
Ground track

The orbit data is extracted from the following two-line orbital elements,

1 36416U 10009D   17112.93091243 -.00000074 +00000-0 +15285-4 0  9990
2 36416 063.4408 052.2942 0381704 356.4557 003.3790 13.69515315356644
Epoch (UTC): 22 April 2017 22:20:30
Eccentricity: 0.0381704
inclination: 63.4408°
perigee height: 719 km
apogee height: 1283 km
right ascension of ascending node: 52.2942°
argument of perigee: 356.4557°
revolutions per day: 13.69515315
mean anomaly at epoch: 3.3790°
orbit number at epoch: 35664

The dashed part of the orbit path shows where the satellite is in the earth's shadow,  

DLR